When you browse on this site, cookies collect data to enhance your experience and personalize the content and advertising you see.
Visit our Privacy Policy to learn more. By continuing to use the site, you agree to this use of cookies and data.
  • In Czech Republic
  • List of Countries
  • For 7 days
  • Water Temperature
  • Satellite Maps
  • Weather Map
  • Weather Widgets
  • user-avatar
    Login

    Hourly Weather Algeciras

    Today, 17 January, Thursday

    Time Temperature Precipitation Wind Pressure Humidity
    00:00 +10°C° 0 mm 1 mps 760 mmHg 93%
    01:00 +10°C° 0 mm 1 mps 760 mmHg 92%
    02:00 +10°C° 0 mm 1 mps 760 mmHg 91%
    03:00 +10°C° 0 mm 1 mps 760 mmHg 90%
    04:00 +9°C° 0.1 mm 2 mps 760 mmHg 91%
    05:00 +9°C° 0.1 mm 2 mps 760 mmHg 92%
    06:00 +8°C° 0 mm 2 mps 759 mmHg 93%
    07:00 +9°C° 0 mm 2 mps 760 mmHg 90%
    08:00 +10°C° 0 mm 2 mps 760 mmHg 88%
    09:00 +12°C° 0 mm 2 mps 760 mmHg 85%
    10:00 +13°C° 0 mm 3 mps 760 mmHg 78%
    11:00 +14°C° 0 mm 3 mps 760 mmHg 70%
    12:00 +17°C° 0 mm 3 mps 760 mmHg 63%
    13:00 +17°C° 0 mm 4 mps 760 mmHg 61%
    14:00 +17°C° 0 mm 4 mps 759 mmHg 60%
    15:00 +17°C° 0 mm 4 mps 759 mmHg 58%
    16:00 +14°C° 0 mm 4 mps 759 mmHg 65%
    17:00 +12°C° 0 mm 4 mps 759 mmHg 72%
    18:00 +11°C° 0 mm 3 mps 759 mmHg 79%
    19:00 +10°C° 0 mm 3 mps 760 mmHg 81%
    20:00 +9°C° 0 mm 3 mps 760 mmHg 83%
    21:00 +9°C° 0 mm 2 mps 760 mmHg 85%
    22:00 +8°C° 0 mm 2 mps 760 mmHg 86%
    23:00 +8°C° 0 mm 2 mps 761 mmHg 87%

    Tomorrow, 18 January, Friday

    Time Temperature Precipitation Wind Pressure Humidity
    00:00 +8°C° 0 mm 2 mps 761 mmHg 88%
    01:00 +7°C° 0 mm 2 mps 761 mmHg 89%
    02:00 +8°C° 0 mm 1 mps 761 mmHg 90%
    03:00 +8°C° 0 mm 1 mps 760 mmHg 90%
    04:00 +8°C° 0 mm 1 mps 761 mmHg 90%
    05:00 +7°C° 0 mm 2 mps 761 mmHg 90%
    06:00 +6°C° 0 mm 2 mps 761 mmHg 90%
    07:00 +7°C° 0 mm 2 mps 761 mmHg 85%
    08:00 +8°C° 0 mm 2 mps 761 mmHg 80%
    09:00 +9°C° 0 mm 2 mps 762 mmHg 75%
    10:00 +12°C° 0 mm 2 mps 762 mmHg 67%
    11:00 +13°C° 0 mm 3 mps 762 mmHg 59%
    12:00 +16°C° 0 mm 3 mps 762 mmHg 52%
    13:00 +15°C° 0 mm 4 mps 762 mmHg 52%
    14:00 +15°C° 0 mm 4 mps 761 mmHg 52%
    15:00 +15°C° 0 mm 5 mps 761 mmHg 52%
    16:00 +13°C° 0 mm 5 mps 761 mmHg 60%
    17:00 +12°C° 0 mm 5 mps 761 mmHg 68%
    18:00 +9°C° 0 mm 5 mps 762 mmHg 76%
    19:00 +9°C° 0 mm 5 mps 762 mmHg 78%
    20:00 +8°C° 0 mm 4 mps 762 mmHg 79%
    21:00 +8°C° 0 mm 4 mps 763 mmHg 81%
    22:00 +8°C° 0 mm 4 mps 763 mmHg 80%
    23:00 +7°C° 0 mm 4 mps 763 mmHg 79%

    Day after tomorrow, 19 January, Saturday

    Time Temperature Precipitation Wind Pressure Humidity
    00:00 +7°C° 0 mm 4 mps 763 mmHg 78%
    01:00 +7°C° 0 mm 4 mps 763 mmHg 76%
    02:00 +7°C° 0 mm 4 mps 763 mmHg 75%
    03:00 +7°C° 0 mm 4 mps 763 mmHg 74%
    04:00 +8°C° 0 mm 5 mps 763 mmHg 73%
    05:00 +8°C° 0 mm 5 mps 762 mmHg 72%
    06:00 +9°C° 0 mm 5 mps 762 mmHg 72%
    07:00 +9°C° 0.1 mm 5 mps 762 mmHg 78%
    08:00 +9°C° 0.1 mm 5 mps 762 mmHg 84%
    09:00 +9°C° 0.1 mm 5 mps 763 mmHg 90%
    10:00 +10°C° 0.3 mm 5 mps 763 mmHg 92%
    11:00 +10°C° 0.3 mm 6 mps 763 mmHg 93%
    12:00 +11°C° 0.3 mm 6 mps 762 mmHg 94%
    13:00 +11°C° 0.1 mm 6 mps 762 mmHg 94%
    14:00 +11°C° 0.1 mm 6 mps 762 mmHg 94%
    15:00 +13°C° 0.1 mm 6 mps 761 mmHg 93%
    16:00 +13°C° 0.1 mm 6 mps 761 mmHg 94%
    17:00 +13°C° 0.1 mm 6 mps 761 mmHg 94%
    18:00 +13°C° 0.1 mm 6 mps 761 mmHg 95%
    19:00 +13°C° 0.4 mm 6 mps 761 mmHg 95%
    20:00 +13°C° 0.4 mm 6 mps 761 mmHg 95%
    21:00 +13°C° 0.4 mm 6 mps 760 mmHg 95%
    22:00 +13°C° 0.9 mm 6 mps 760 mmHg 94%
    23:00 +12°C° 0.9 mm 7 mps 760 mmHg 94%

    20 January, Sunday

    Time Temperature Precipitation Wind Pressure Humidity
    00:00 +12°C° 0.9 mm 7 mps 759 mmHg 94%
    01:00 +12°C° 0.7 mm 7 mps 759 mmHg 95%
    02:00 +12°C° 0.7 mm 7 mps 759 mmHg 95%
    03:00 +12°C° 0.7 mm 7 mps 758 mmHg 95%
    04:00 +12°C° 0.1 mm 7 mps 758 mmHg 95%
    05:00 +13°C° 0.1 mm 6 mps 758 mmHg 95%
    06:00 +11°C° 0.1 mm 6 mps 758 mmHg 96%
    07:00 +11°C° 0.1 mm 6 mps 758 mmHg 94%
    08:00 +11°C° 0.1 mm 6 mps 759 mmHg 92%
    09:00 +11°C° 0.1 mm 6 mps 759 mmHg 90%
    10:00 +11°C° 0 mm 6 mps 759 mmHg 88%
    11:00 +11°C° 0 mm 6 mps 759 mmHg 86%
    12:00 +11°C° 0 mm 7 mps 760 mmHg 84%
    13:00 +12°C° 0 mm 7 mps 759 mmHg 83%
    14:00 +12°C° 0 mm 7 mps 759 mmHg 81%
    15:00 +12°C° 0 mm 7 mps 759 mmHg 80%
    16:00 +13°C° 0 mm 6 mps 759 mmHg 82%
    17:00 +12°C° 0 mm 5 mps 760 mmHg 84%
    18:00 +12°C° 0 mm 5 mps 760 mmHg 87%
    19:00 +10°C° 0 mm 5 mps 761 mmHg 89%
    20:00 +11°C° 0 mm 4 mps 761 mmHg 91%
    21:00 +10°C° 0 mm 4 mps 762 mmHg 93%
    22:00 +10°C° 0 mm 3 mps 762 mmHg 92%
    23:00 +9°C° 0 mm 3 mps 762 mmHg 91%

    21 January, Monday

    Time Temperature Precipitation Wind Pressure Humidity
    00:00 +9°C° 0 mm 3 mps 762 mmHg 90%
    01:00 +8°C° 0 mm 3 mps 762 mmHg 88%
    02:00 +8°C° 0 mm 3 mps 763 mmHg 85%
    03:00 +7°C° 0 mm 3 mps 763 mmHg 83%
    04:00 +7°C° 0 mm 2 mps 763 mmHg 83%
    05:00 +6°C° 0 mm 2 mps 763 mmHg 82%
    06:00 +6°C° 0 mm 2 mps 763 mmHg 82%
    07:00 +7°C° 0 mm 2 mps 764 mmHg 78%
    08:00 +9°C° 0 mm 1 mps 764 mmHg 74%
    09:00 +10°C° 0 mm 1 mps 765 mmHg 70%
    10:00 +12°C° 0 mm 1 mps 765 mmHg 61%
    11:00 +15°C° 0 mm 1 mps 765 mmHg 53%
    12:00 +18°C° 0 mm 1 mps 765 mmHg 45%
    13:00 +18°C° 0 mm 1 mps 765 mmHg 45%
    14:00 +17°C° 0 mm 2 mps 764 mmHg 44%
    15:00 +17°C° 0 mm 2 mps 764 mmHg 44%
    16:00 +15°C° 0 mm 2 mps 764 mmHg 52%
    17:00 +13°C° 0 mm 2 mps 764 mmHg 60%
    18:00 +10°C° 0 mm 2 mps 764 mmHg 68%
    19:00 +10°C° 0 mm 2 mps 765 mmHg 67%
    20:00 +9°C° 0 mm 2 mps 765 mmHg 67%
    21:00 +8°C° 0 mm 2 mps 765 mmHg 67%
    22:00 +8°C° 0 mm 2 mps 765 mmHg 67%
    23:00 +8°C° 0 mm 2 mps 765 mmHg 66%

    22 January, Tuesday

    Time Temperature Precipitation Wind Pressure Humidity
    00:00 +8°C° 0 mm 2 mps 765 mmHg 65%
    01:00 +8°C° 0 mm 2 mps 765 mmHg 68%
    02:00 +8°C° 0 mm 3 mps 765 mmHg 71%
    03:00 +8°C° 0 mm 3 mps 765 mmHg 73%
    04:00 +7°C° 0 mm 3 mps 764 mmHg 76%
    05:00 +6°C° 0 mm 4 mps 764 mmHg 79%
    06:00 +6°C° 0 mm 4 mps 764 mmHg 82%
    07:00 +7°C° 0 mm 5 mps 764 mmHg 79%
    08:00 +8°C° 0 mm 5 mps 764 mmHg 77%
    09:00 +9°C° 0 mm 6 mps 764 mmHg 74%
    10:00 +10°C° 0 mm 7 mps 764 mmHg 69%
    11:00 +11°C° 0 mm 7 mps 763 mmHg 63%
    12:00 +12°C° 0 mm 8 mps 763 mmHg 58%
    13:00 +11°C° 0 mm 9 mps 762 mmHg 64%
    14:00 +11°C° 0 mm 9 mps 761 mmHg 70%
    15:00 +10°C° 0 mm 9 mps 760 mmHg 76%
    16:00 +10°C° 0.2 mm 9 mps 760 mmHg 81%
    17:00 +10°C° 0.2 mm 9 mps 759 mmHg 86%
    18:00 +10°C° 0.2 mm 9 mps 759 mmHg 90%
    19:00 +8°C° 0.8 mm 9 mps 759 mmHg 88%
    20:00 +7°C° 0.8 mm 9 mps 759 mmHg 85%
    21:00 +6°C° 0.8 mm 9 mps 759 mmHg 82%
    22:00 +6°C° 0 mm 8 mps 759 mmHg 82%
    23:00 +5°C° 0 mm 7 mps 759 mmHg 82%
    Show more